Weather History for EIDW - September, 2012

Change the Weather History Date:

Monday, September 3, 2012

  Actual Average Record
Temperature  
Mean Temperature 62 °F -  
Max Temperature 72 °F 62 °F 72 °F (2012)
Min Temperature 52 °F 49 °F 42 °F (2010)
Degree Days  
Heating Degree Days 3    
Growing Degree Days 12 (Base 50)    
Moisture  
Dew Point 55 °F    
Average Humidity 79    
Maximum Humidity 100    
Minimum Humidity 60    
Precipitation  
Precipitation 0.00 in 0.09 in - ()
Sea Level Pressure  
Sea Level Pressure 30.25 in    
Wind  
Wind Speed 8 mph ()    
Max Wind Speed 15 mph    
Max Gust Speed -    
Visibility 6.5 miles    
Events      
Averages and records for this station are not official NWS values.
T = Trace of Precipitation, MM = Missing Value Source: Averaged Metar Reports

Daily Weather History Graph

Daily Weather History Graph

Search for Another Location

Airport or City:

Trip Planner

Search our weather history database for the weather conditions in past years. The results will help you decide how hot, cold, wet, or windy it might be!

Date:

Astronomy

Sep. 03, 2012 Rise Set
Actual Time 6:38 AM IST 8:09 PM IST
Civil Twilight 6:02 AM IST 8:45 PM IST
Nautical Twilight 5:17 AM IST 9:29 PM IST
Astronomical Twilight 4:27 AM IST 10:19 PM IST
Moon 8:42 PM IST 10:08 AM IST
Length of Visible Light 14h 43m
Length of Day
13h 30m
Waning Gibbous, 91% of the Moon is Illuminated
Sep 3
Waning Gibbous
Sep 8
Last Quarter
Sep 16
New
Sep 22
First Quarter
Sep 30
Full

Hourly Weather History & Observations

Time (IST) Temp. Dew Point Humidity Pressure Visibility Wind Dir Wind Speed Gust Speed Precip Events Conditions
12:00 AM 55.4 °F 53.6 °F 94% 30.33 in 6.2 mi West 6.9 mph - N/A   Partly Cloudy
12:30 AM 55.4 °F 53.6 °F 94% 30.33 in 6.2 mi West 8.1 mph - N/A   Partly Cloudy
1:00 AM 55 °F 53 °F 90% 30.35 in 19 mi WSW 8.9 mph - -   Scattered Clouds
1:00 AM 55.4 °F 53.6 °F 94% 30.33 in 6.2 mi WSW 6.9 mph - N/A   Partly Cloudy
1:30 AM 55.4 °F 53.6 °F 94% 30.33 in 6.2 mi WSW 8.1 mph - N/A   Partly Cloudy
2:00 AM 53.6 °F 53.6 °F 100% 30.33 in 6.2 mi WSW 6.9 mph - N/A   Partly Cloudy
2:30 AM 53.6 °F 51.8 °F 94% 30.33 in 6.2 mi WSW 8.1 mph - N/A   Partly Cloudy
3:00 AM 53.6 °F 51.8 °F 94% 30.30 in 6.2 mi SW 6.9 mph - N/A   Partly Cloudy
3:30 AM 53.6 °F 51.8 °F 94% 30.33 in 6.2 mi WSW 8.1 mph - N/A   Partly Cloudy
4:00 AM 53.6 °F 51.8 °F 94% 30.30 in 6.2 mi WSW 6.9 mph - N/A   Partly Cloudy
4:30 AM 53.6 °F 51.8 °F 94% 30.30 in 6.2 mi WSW 6.9 mph - N/A   Mostly Cloudy
5:00 AM 53.6 °F 51.8 °F 94% 30.30 in 6.2 mi WSW 6.9 mph - N/A   Mostly Cloudy
5:30 AM 53.6 °F 51.8 °F 94% 30.30 in 6.2 mi West 9.2 mph - N/A   Scattered Clouds
6:00 AM 53.6 °F 51.8 °F 94% 30.30 in 6.2 mi West 5.8 mph - N/A   Partly Cloudy
6:30 AM 53.6 °F 51.8 °F 94% 30.30 in 6.2 mi WSW 4.6 mph - N/A   Scattered Clouds
7:00 AM 53 °F 51 °F 90% 30.31 in 25 mi WSW 4.5 mph - -   Scattered Clouds
7:00 AM 53.6 °F 51.8 °F 94% 30.30 in 6.2 mi WSW 4.6 mph - N/A   Mostly Cloudy
7:30 AM 53.6 °F 51.8 °F 94% 30.30 in 6.2 mi SW 4.6 mph - N/A   Mostly Cloudy
8:30 AM 57.2 °F 53.6 °F 88% 30.27 in - West 5.8 mph - N/A   Clear
9:00 AM 57.2 °F 53.6 °F 88% 30.30 in - West 6.9 mph - N/A   Clear
9:30 AM 59.0 °F 53.6 °F 82% 30.27 in - WSW 5.8 mph - N/A   Clear
10:00 AM 60.8 °F 55.4 °F 82% 30.27 in 6.2 mi WSW 8.1 mph - N/A   Mostly Cloudy
10:30 AM 62.6 °F 55.4 °F 77% 30.27 in 6.2 mi WSW 9.2 mph - N/A   Mostly Cloudy
11:00 AM 64.4 °F 55.4 °F 73% 30.27 in 6.2 mi WSW 12.7 mph - N/A   Mostly Cloudy
11:30 AM 66.2 °F 57.2 °F 73% 30.27 in 6.2 mi WSW 12.7 mph - N/A   Mostly Cloudy
12:00 PM 64.4 °F 55.4 °F 73% 30.27 in 6.2 mi SW 10.4 mph - N/A   Mostly Cloudy
12:30 PM 66.2 °F 57.2 °F 73% 30.27 in 6.2 mi WSW 10.4 mph - N/A   Mostly Cloudy
1:00 PM 67 °F 57 °F 61% 30.26 in 31 mi SSW 8.9 mph - -   Scattered Clouds
1:00 PM 66.2 °F 57.2 °F 73% 30.24 in - SW 8.1 mph - N/A   Clear
1:30 PM 68.0 °F 57.2 °F 68% 30.24 in - SW 10.4 mph - N/A   Clear
2:00 PM 69.8 °F 57.2 °F 64% 30.24 in - SSW 9.2 mph - N/A   Clear
2:30 PM 69.8 °F 55.4 °F 60% 30.24 in - South 8.1 mph - N/A   Clear
3:00 PM 69.8 °F 55.4 °F 60% 30.21 in - SSW 11.5 mph - N/A   Clear
3:30 PM 69.8 °F 55.4 °F 60% 30.21 in - SW 11.5 mph - N/A   Clear
4:00 PM 69.8 °F 57.2 °F 64% 30.21 in - SW 11.5 mph - N/A   Clear
4:30 PM 71.6 °F 57.2 °F 60% 30.18 in 6.2 mi SW 13.8 mph - N/A   Mostly Cloudy
5:00 PM 69.8 °F 57.2 °F 64% 30.18 in 6.2 mi SW 13.8 mph - N/A   Mostly Cloudy
5:30 PM 69.8 °F 57.2 °F 64% 30.18 in 6.2 mi SW 11.5 mph - N/A   Mostly Cloudy
6:00 PM 71.6 °F 59.0 °F 64% 30.18 in 6.2 mi SW 12.7 mph - N/A   Mostly Cloudy
6:30 PM 69.8 °F 59.0 °F 68% 30.18 in 6.2 mi SW 10.4 mph - N/A   Mostly Cloudy
7:00 PM 69 °F 58 °F 61% 30.18 in 31 mi WSW 13.4 mph - -   Partly Cloudy
7:00 PM 69.8 °F 59.0 °F 68% 30.18 in 6.2 mi WSW 13.8 mph - N/A   Mostly Cloudy
7:30 PM 69.8 °F 59.0 °F 68% 30.18 in 6.2 mi SW 9.2 mph - N/A   Mostly Cloudy
8:00 PM 68.0 °F 59.0 °F 73% 30.18 in 6.2 mi SW 11.5 mph - N/A   Mostly Cloudy
8:30 PM 68.0 °F 59.0 °F 73% 30.18 in 6.2 mi SW 11.5 mph - N/A   Mostly Cloudy
9:00 PM 66.2 °F 59.0 °F 78% 30.18 in 6.2 mi SW 9.2 mph - N/A   Mostly Cloudy
9:30 PM 66.2 °F 59.0 °F 78% 30.18 in 6.2 mi SW 9.2 mph - N/A   Mostly Cloudy
10:00 PM 66.2 °F 59.0 °F 78% 30.18 in 6.2 mi SW 15.0 mph - N/A   Mostly Cloudy
10:30 PM 66.2 °F 59.0 °F 78% 30.18 in 6.2 mi SW 10.4 mph - N/A   Mostly Cloudy
11:00 PM 66.2 °F 59.0 °F 78% 30.18 in 6.2 mi WSW 11.5 mph - N/A   Mostly Cloudy
11:30 PM 66.2 °F 60.8 °F 83% 30.18 in 6.2 mi WSW 12.7 mph - N/A   Mostly Cloudy